User: anonymous   Login
Location: Sungai Igah
(2.7333°N, 114.2500°E)
Time: 01:44:57
(UTC+00:00)
Language:

Cosmos 1633 Rocket - Orbit

View from above orbital plane
View from above orbital plane
View from above satellite
View from above satellite

Ground track
Ground track

The orbit data is extracted from the following two-line orbital elements,

1 15593U 85020B   21270.42534146  .00000149  00000-0  14876-4 0  9993
2 15593  82.5368 239.6435 0010049 277.4562  82.5512 14.84447477955109
Epoch (UTC): 27 September 2021 10:12:29
Eccentricity: 0.0010049
inclination: 82.5368°
perigee height: 608 km
apogee height: 622 km
right ascension of ascending node: 239.6435°
argument of perigee: 277.4562°
revolutions per day: 14.84447477
mean anomaly at epoch: 82.5512°
orbit number at epoch: 95510

The dashed part of the orbit path shows where the satellite is in the earth's shadow,  

DLR